Tracking 19854 objects as of 22-Sep-2019
HD Live streaming from Space Station
objects crossing your sky now

NOAA 16 DEB

Track NOAA 16 DEB now!
10-day predictions


NORAD ID: 41430
Int'l Code: 2000-055LK
Perigee: 788.9 km
Apogee: 862.7 km
Inclination: 98.9 °
Period: 101.3 minutes
Semi major axis: 7196 km
RCS: Unknown
Launch date: September 21, 2000
Source: United States (US)
Launch site: AIR FORCE WESTERN TEST RANGE (AFWTR)

Note: This is SATELLITE DEBRIS
aabbcc
Your satellite tracking list
Your tracking list is empty




NASA's NSSDC Master Catalog

Two Line Element Set (TLE):
1 41430U 00055LK  19264.14276889  .00000759  00000-0  35913-3 0  9994
2 41430  98.9189   5.1843 0051252 106.6384 254.0429 14.21980552190184
Source of the keplerian elements: AFSPC